RAVAN

Last updated on Sat Aug 15 2026 00:03:44 GMT+0000 (Coordinated Universal Time)

1 41849U 16067B 26226.24740816 .00044748 00000+0 54064-3 0 9994 2 41849 97.9784 122.7747 0006474 128.2412 231.9427 15.60585282536737
UTC large
Height (km)
Speed (km/s)
/
Latitude / Longitude
Inclination (degrees)
Orbital Period (minutes)
Azimuth
Elevation
Range (km)
Doppler Factor

Next 0 passes for location: London (51.5072 / 0.1276)

No passes found over London.
RAVAN